Location: Biharia
(46.4333°N, 22.8000°E)
Time: 22:57:51
(UTC+00:00)

Cosmos 2082 - Pass Details

Date: 16 October 2021
Orbit: 835 x 853 km, 71.0° (Epoch: 25 November)

Event Time Altitude Azimuth Distance (km) Brightness Sun altitude
Rises 16:24:55 0° 334° (NNW) 3,397 7.1 -8.4°
Reaches altitude 10° 16:27:24 10° 338° (NNW) 2,458 6.4 -8.9°
Maximum altitude 16:33:01 68° 61° (ENE) 898 3.7 -9.8°
Drops below altitude 10° 16:38:35 10° 145° (SE) 2,442 5.8 -10.8°
Sets 16:41:02 0° 148° (SSE) 3,373 6.5 -11.2°
